ZL2IH Weather Reports


time (UTC)temp
C
wind
direction
speed
KPH
gust
KPH
rain 1hr
cm
rain 24hr
cm
rain mn
cm
humidity
%
barometer
mb
20260506051058 15 0.0 0.0 0.00 0.00 0.00 100 1027.8
20260506045019 15 0.0 3.2 0.00 0.00 0.00 100 1027.9
20260506044019 16 0.0 3.2 0.00 0.00 0.00 100 1028.1
20260506043019 16 0.0 1.6 0.00 0.00 0.00 100 1028.0
20260506042018 16 0.0 1.6 0.00 0.00 0.00 100 1028.0
20260506041018 16 0.0 1.6 0.00 0.00 0.00 100 1028.0
20260506040019 16 0.0 6.4 0.00 0.00 0.00 100 1028.0
20260506035018 16 0.0 3.2 0.00 0.00 0.00 100 1028.1
20260506034018 16 0.0 6.4 0.00 0.00 0.00 100 1028.1
20260506033038 16 0.0 3.2 0.00 0.00 0.00 100 1028.2
20260506032019 17 338 1.6 6.4 0.00 0.00 0.00 100 1028.1
20260506031018 17 338 1.6 6.4 0.00 0.00 0.00 100 1028.1
20260506030018 17 338 1.6 8.0 0.00 0.00 0.00 100 1028.1
20260506025018 17 338 1.6 6.4 0.00 0.00 0.00 100 1028.1
20260506024058 17 45 1.6 3.2 0.00 0.00 0.00 100 1028.0
20260506023018 17 338 1.6 6.4 0.00 0.00 0.00 100 1028.1
20260506022018 17 338 1.6 6.4 0.00 0.00 0.00 100 1028.2
20260506021018 17 0 1.6 9.7 0.00 0.00 0.00 100 1028.3
20260506020018 17 338 1.6 6.4 0.00 0.00 0.00 100 1028.3
20260506015018 17 338 1.6 8.0 0.00 0.00 0.00 100 1028.3
20260506014018 18 338 3.2 9.7 0.00 0.00 0.00 100 1028.3
20260506013058 17 315 1.6 11.3 0.00 0.00 0.00 100 1028.4
20260506012018 17 338 1.6 6.4 0.00 0.00 0.00 100 1028.3
20260506011059 17 338 3.2 8.0 0.00 0.00 0.00 100 1028.5
20260506010018 17 338 1.6 8.0 0.00 0.00 0.00 100 1028.6
20260506005019 17 338 1.6 9.7 0.00 0.00 0.00 100 1028.6
20260506004018 17 0 3.2 9.7 0.00 0.00 0.00 100 1028.8
20260506003017 17 338 1.6 6.4 0.00 0.00 0.00 100 1029.0
20260506002018 17 338 3.2 8.0 0.00 0.00 0.00 100 1029.0
20260506001018 17 338 3.2 8.0 0.00 0.00 0.00 100 1029.1
20260506000018 17 90 1.6 14.5 0.00 0.00 0.00 100 1029.1
20260505235018 17 338 3.2 9.7 0.00 0.00 0.00 100 1029.1
20260505234018 17 315 3.2 8.0 0.00 0.00 0.00 100 1029.3
20260505233018 17 338 1.6 8.0 0.00 0.00 0.00 100 1029.2
20260505232018 16 338 1.6 6.4 0.00 0.00 0.00 100 1029.2
20260505231018 16 338 1.6 8.0 0.00 0.00 0.00 100 1029.4
20260505230018 16 338 1.6 8.0 0.00 0.00 0.00 100 1029.3
20260505225017 16 68 1.6 6.4 0.00 0.00 0.00 100 1029.6
20260505224018 16 0 1.6 4.8 0.00 0.00 0.00 100 1029.5
20260505223019 16 90 1.6 6.4 0.00 0.00 0.00 100 1029.6
20260505222017 16 0.0 6.4 0.00 0.00 0.00 100 1029.3
20260505221018 16 0.0 6.4 0.00 0.00 0.00 100 1029.5
20260505220018 15 0.0 1.6 0.00 0.00 0.00 100 1029.5
20260505215018 15 0.0 1.6 0.00 0.00 0.00 100 1029.5
20260505214018 14 0.0 1.6 0.00 0.00 0.00 100 1029.5
20260505213018 13 0.0 0.0 0.00 0.00 0.00 100 1029.6
20260505212018 13 0.0 0.0 0.00 0.00 0.00 100 1029.8
20260505211058 13 0.0 0.0 0.00 0.00 0.00 100 1029.8
20260505210018 13 0.0 0.0 0.00 0.00 0.00 100 1029.9
20260505205018 12 0.0 0.0 0.00 0.00 0.00 100 1029.7
20260505204018 12 0.0 0.0 0.00 0.00 0.00 100 1029.7
20260505203017 12 0.0 0.0 0.00 0.00 0.00 100 1029.6
20260505202017 12 0.0 0.0 0.00 0.00 0.00 100 1029.6
20260505201018 12 0.0 0.0 0.00 0.00 0.00 100 1029.5
20260505200017 11 0.0 0.0 0.00 0.00 0.00 100 1029.4
20260505195058 11 0.0 0.0 0.00 0.00 0.00 100 1029.4
20260505194017 11 0.0 0.0 0.00 0.00 0.00 100 1029.4
20260505193017 11 0.0 0.0 0.00 0.00 0.00 100 1029.3
20260505192058 11 0.0 0.0 0.00 0.00 0.00 100 1029.4
20260505191017 11 0.0 0.0 0.00 0.00 0.00 100 1029.4
20260505190017 11 0.0 0.0 0.00 0.00 0.00 100 1029.3
20260505185017 11 0.0 0.0 0.00 0.00 0.00 100 1029.3
20260505184019 11 0.0 0.0 0.00 0.00 0.00 100 1029.4
20260505183017 11 0.0 0.0 0.00 0.00 0.00 100 1029.4
20260505182017 11 0.0 0.0 0.00 0.00 0.00 100 1029.2
20260505181017 11 0.0 0.0 0.00 0.00 0.00 100 1029.4
20260505180018 11 0.0 0.0 0.00 0.00 0.00 100 1029.5
20260505175017 11 0.0 0.0 0.00 0.00 0.00 100 1029.5
20260505174017 11 0.0 0.0 0.00 0.00 0.00 100 1029.5
20260505173017 11 0.0 0.0 0.00 0.00 0.00 100 1029.4
20260505172037 11 0.0 0.0 0.00 0.00 0.00 100 1029.4
20260505171017 11 0.0 0.0 0.00 0.00 0.00 100 1029.5
20260505170018 11 0.0 0.0 0.00 0.00 0.00 100 1029.3
20260505165017 11 0.0 0.0 0.00 0.00 0.00 100 1029.4
20260505164017 11 0.0 0.0 0.00 0.00 0.00 100 1029.5
20260505163017 12 0.0 0.0 0.00 0.00 0.00 100 1029.6
20260505162017 12 0.0 0.0 0.00 0.00 0.00 100 1029.6
20260505161017 12 0.0 0.0 0.00 0.00 0.00 100 1029.7
20260505153017 12 0.0 0.0 0.00 0.00 0.00 100 1030.1
20260505152017 12 0.0 0.0 0.00 0.00 0.00 100 1030.2
20260505151059 12 0.0 0.0 0.00 0.00 0.00 100 1030.2
20260505125018 12 0.0 0.0 0.00 0.00 0.00 100 1031.3
20260505124017 12 0.0 0.0 0.00 0.00 0.00 100 1031.3
20260505123017 12 0.0 0.0 0.00 0.00 0.00 100 1031.3
20260505122057 12 0.0 0.0 0.00 0.00 0.00 100 1031.3
20260505121017 12 0.0 0.0 0.00 0.00 0.00 100 1031.3
20260505120057 12 0.0 0.0 0.00 0.00 0.00 100 1031.2
20260505115016 12 0.0 0.0 0.00 0.00 0.00 100 1031.2
20260505114016 12 0.0 0.0 0.00 0.00 0.00 100 1031.1
20260505113016 12 0.0 0.0 0.00 0.00 0.00 100 1031.2
20260505111017 12 0.0 0.0 0.00 0.00 0.00 100 1031.5
20260505102016 12 0.0 0.0 0.00 0.00 0.00 100 1031.7
20260505101019 12 0.0 0.0 0.00 0.00 0.00 100 1031.9
20260505100019 12 0.0 0.0 0.00 0.00 0.00 100 1031.8
20260505095139 12 0.0 0.0 0.00 0.00 0.00 100 1031.8
20260505094018 12 0.0 0.0 0.00 0.00 0.00 100 1031.8
20260505093018 12 0.0 0.0 0.00 0.00 0.00 100 1031.7
20260505092018 12 0.0 0.0 0.00 0.00 0.00 100 1031.5
20260505091019 12 0.0 0.0 0.00 0.00 0.00 100 1031.4
20260505090018 12 0.0 0.0 0.00 0.00 0.00 100 1031.3
20260505085039 12 0.0 0.0 0.00 0.00 0.00 100 1031.3
20260505084018 12 0.0 0.0 0.00 0.00 0.00 100 1031.4
20260505083018 12 0.0 0.0 0.00 0.00 0.00 100 1031.5
20260505082018 12 0.0 0.0 0.00 0.00 0.00 100 1031.5
20260505081018 12 0.0 0.0 0.00 0.00 0.00 100 1031.5
20260505080019 12 0.0 0.0 0.00 0.00 0.00 100 1031.6
20260505075040 12 0.0 0.0 0.00 0.00 0.00 100 1031.6
20260505074018 12 0.0 1.6 0.00 0.00 0.00 100 1031.7
20260505073018 12 0.0 1.6 0.00 0.00 0.00 100 1031.6
20260505072018 12 0.0 0.0 0.00 0.00 0.00 100 1031.6
20260505071018 12 0.0 0.0 0.00 0.00 0.00 100 1031.6
20260505070018 12 0.0 0.0 0.00 0.00 0.00 100 1031.5
20260505065018 12 0.0 0.0 0.00 0.00 0.00 100 1031.3
20260505064018 12 0.0 0.0 0.00 0.00 0.00 100 1031.2
20260505063018 12 0.0 0.0 0.00 0.00 0.00 100 1031.3
20260505062019 12 0.0 0.0 0.00 0.00 0.00 100 1031.3
20260505061018 12 0.0 0.0 0.00 0.00 0.00 100 1031.3
20260505060018 13 0.0 0.0 0.00 0.00 0.00 100 1031.2
20260505055018 13 0.0 0.0 0.00 0.00 0.00 100 1031.1
20260505054018 13 0.0 0.0 0.00 0.00 0.00 100 1031.1